Regional Weather Roundup
Issued by NWS Sterling, VA

Home | Current Version | Previous Version | Text Only | Print | Product List | Glossary Off
Versions: 1 2 3 4 5 6 7 8 9 10 11 12 13 14 15 16 17 18 19 20 21 22 23 24 25 26 27 28 29 30 31 32 33 34 35 36 37 38 39 40 41 42 43 44 45 46 47 48 49 50

000
ASUS41 KLWX 200610
RWRLWX

REGIONAL WEATHER ROUNDUP
NATIONAL WEATHER SERVICE BALTIMORE MD/WASHINGTON DC
200 AM EDT MON APR 20 2015

Note: "FAIR" indicates few or no clouds below 12,000 feet
with no significant weather and/or obstructions to visibility.
 TC=TEMPERATURE CELSIUS

 * =Non NWS site. Station does not report precipitation (e.g. rain,
    snow, etc.), thunder, or fog.

DCZ001-MDZ009-015-VAZ040>042-051-053>054-200700-
WASHINGTON METRO

CITY           SKY/WX    TMP DP  RH WIND       PRES   REMARKS
WASHINGTON NAT RAIN      59  54  83 E14       29.78F
DULLES         RAIN      54  52  93 E17G26    29.72F FOG
ANDREWS AFB    RAIN      55  55 100 E14       29.79F
FT BELVOIR     LGT RAIN  56  55  94 VRB7      29.75F FOG
QUANTICO       RAIN      61  58  90 SE20G28   29.73F
COLLEGE PARK*  CLOUDY    54  54 100 E6        29.79F
LEESBURG*      HVY RAIN  54  54 100 E14G24    29.75F
MANASSAS*      CLOUDY    55  55 100 E14G23    29.71F
GAITHERSBURG*  CLOUDY    54  48  82 E12G21    29.81F

$$

MDZ006>007-011-014-200700-
BALTIMORE METRO

CITY           SKY/WX    TMP DP  RH WIND       PRES   REMARKS
BWI AIRPORT    RAIN      53  51  93 E18       29.80F FOG
MD SCIENCE CTR   N/A     54  51  90 MISG      29.83F
MARTIN STATE   DRIZZLE   54  52  94 NE12G26   29.85F
ANNAPOLIS      RAIN      55  51  86 E18G26    29.79F FOG
FORT MEADE*    CLOUDY    52  50  93 E17G25    29.82F

$$

MDZ012-015-019>023-200700-
MARYLAND EASTERN SHORE

CITY           SKY/WX    TMP DP  RH WIND       PRES   REMARKS
OCEAN CITY     CLOUDY    53  52  96 E16G22    29.88F
SALISBURY      RAIN      61  59  93 SE17G29   29.85F FOG
BAY BRIDGE AP* DRIZZLE   54  52  94 E20G30    29.81F
CAMBRIDGE*     CLOUDY    59  55  88 E15G24    29.82F
EASTON*        RAIN      57  57 100 SE10G22   29.86F

$$

MDZ017>025-200700-
SOUTHERN MARYLAND

CITY           SKY/WX    TMP DP  RH WIND       PRES   REMARKS
PATUXENT RIVER HVY RAIN  59  50  72 SE20G29   29.78F
ST INIGOES     HVY RAIN  62  61  96 SE16G30   29.76F FOG
LEONARDTOWN*   CLOUDY    59  57  94 SE8G16    29.80F

$$

MDZ003>005-200700-
NORTH CENTRAL MARYLAND

CITY           SKY/WX    TMP DP  RH WIND       PRES   REMARKS
FREDERICK*     RAIN      54  48  82 E12       29.80F
HAGERSTOWN APT HVY RAIN  51  48  89 E12       29.76F FOG
WESTMINSTER*   RAIN      52  48  87 E16G26    29.78F

$$

MDZ501>502-200700-
WESTERN MARYLAND

CITY           SKY/WX    TMP DP  RH WIND       PRES   REMARKS
OAKLAND*       CLOUDY    43 N/A N/A SE22G33   29.70F HAZE
CUMBERLAND*    CLOUDY    48  48 100 NW6       29.80F

$$

VAZ025>031-200700-
SHENANDOAH VALLEY

CITY           SKY/WX    TMP DP  RH WIND       PRES   REMARKS
WINCHESTER*    RAIN      52  48  87 NE5       29.73F
FRONT ROYAL*   CLOUDY    50  50 100 CALM      29.71F
LURAY*         RAIN      54  54 100 N7        29.68F
NEW MARKET*    CLOUDY    50  49  97 N8        29.70F
STAUNTON*      LGT RAIN  52  50  93 N8        29.71F
WAYNESBORO*    NOT AVBL

$$

WVZ021-048>050-054>055-200700-
EASTERN WEST VIRGINIA PANHANDLE

CITY           SKY/WX    TMP DP  RH WIND       PRES   REMARKS
MARTINSBURG    HVY RAIN  51  50  96 NW7       29.76F FOG
PETERSBURG*    HVY RAIN  48  44  85 W6        29.78

$$

VAZ036>039-050-200700-
CENTRAL FOOTHILLS

CITY           SKY/WX    TMP DP  RH WIND       PRES   REMARKS
CHARLOTTESVILL RAIN      54  53  97 NE9       29.66F FOG
CULPEPER*      RAIN      61  57  88 SE3       29.69F
ORANGE*        HVY RAIN  61  59  94 E3        29.69F
GORDONSVILLE*  CLOUDY    59  58  98 CALM      29.67F
WARRENTON*     RAIN      58  58  99 E9        29.69F

$$

VAZ055>057-200700-
NORTH AND CENTRAL PIEDMONT

CITY           SKY/WX    TMP DP  RH WIND       PRES   REMARKS
FREDERICKSBRG* RAIN      61  61 100 SE7       29.70F
STAFFORD*      RAIN      59  50  72 E10       29.74F

$$

NCZ024-NYZ072-PAZ021-071-VAZ022-071-200700-
OTHER REGIONAL OBSERVATIONS

CITY           SKY/WX    TMP DP  RH WIND       PRES   REMARKS
NEW YORK CITY  CLOUDY    48  39  71 VRB6G17   30.11F
PHILADELPHIA   CLOUDY    51  45  79 E15       29.97F
PITTSBURGH     CLOUDY    53  49  86 SE15G24   29.59F
ROANOKE        CLOUDY    57  56  96 CALM      29.72S
RICHMOND       RAIN      66  64  93 S9        29.73F FOG
RALEIGH        CLOUDY    67  64  90 SW13G21   29.74F

$$

ANZ530>537-200700-
MARINE OBSERVATIONS

STATION/POSITION TIME  TEMP    WIND        PRES
                       AIR SEA DIR/SP/G
                 (UTC) (F)     (DEG/KT/KT) (MB)
THOMAS PT LIGHT  0600   54 53  100/ 26/ 28 1009.0F
BALT KEY BRIDGE  0500   54      90/ 23/ 29 1011.4F
COVE POINT       0500   56     130/ 23/ 27 1009.6F
LEWISETTA        0500   63 61              1009.2F
SOLOMONS ISLAND  0500      56                N/A
PINEY POINT      0512          140/ 23/ 25   N/A

$$



USA.gov is the U.S. government's official web portal to all federal, state and local government web resources and services.